OBJECT AZ, 62656

Orbit data source: Space-Track

You're viewing an Uncataloged Satellite

Recently launched and/or uncataloged satellites may have evolving metadata. Metadata may include but not limited to: Owner, Maufacturer, Bus, Motor, and Mission.

OBJECT AZ, 62656 is a satellite in SSO that was launched on Tue, 14 Jan 2025 UTC via an FALCON 9 launch vehicle from the Air Force Western Test Range (AFWTR). Unknown objects in Earth's orbit typically refer to objects detected orbiting the Earth but have not yet been identified or cataloged. These objects could be anything from previously untracked satellites, spent rocket stages, debris from satellite collisions, or even natural meteoroids temporarily captured by Earth's gravity.

Loading next visibility...
Identifier
62656, 2025-009AZ
Orbit
SSO
Country
Flag of TBDTBD
Related business
None
Manufacturer
Unknown
Mission
Operational Civil Technology
Bus & Motor
Unknown
Mass
Unknown
Launch date (UTC)
2025-01-14 (9 months ago)
Launch vehicle
FALCON 9
Launch site
Air Force Western Test Range (AFWTR)
Object type
Unknown
Shape & HBR
Box, 0.1 m
Radar Cross Section
0.035 m², Small (<0.1 m²)

Expand to show TLE details & history
Last TLE update: 9 hours ago

TLE from 9 hours ago
0 OBJECT AZ
1 62656U 25009AZ  25298.15617274  .00016827  00000-0  66293-3 0  9993
2 62656  97.4159  17.2291 0002556  96.9166 263.2363 15.25666007 43098
Epoch: 2025-10-25T03:44Z
TLE epoch observation values (Epoch: 2025-10-25T03:44:53.324Z)
Latitude
-0.00004°
Longitude
-72.78385°
Altitude
492.091 km
Speed
7.619 km/s
True Right ascension
01h 08m 54s
True Declination
0° 00' 00"
Sunlit
Object was in full shadow at epoch
Visualization orbit readout
Latitude
Unknown
Longitude
Unknown
Altitude
Unknown
Speed
Unknown
Apparent Right ascension
Unknown
Apparent Declination
Unknown
Sunlit
N/A
Visualization observer readout
Local Sidereal Time
07:34:13
Azimuth
Unknown
Elevation
Unknown
Doppler factor
Unknown
Orbital elements
Apogee altitude
487.499 km
Perigee altitude
483.991 km
Semi-major axis
6,863.882 km
Eccentricity
0.00026
Inclination
97.4159°
RAAN
17.2291°
Arg. of periapsis
96.9166°
True anomaly
263.20722°
Mean anomaly
263.2363°
Eccentric anomaly
263.22176°
Mean motion
3.8167 °/min
Orbital period
94.32 mins
BSTAR
0.00066293
Loading maneuver chart data...
Computing Atmospheric mass density...
Loading historical data...
Loading historical data...
Loading historical data...
Loading historical data...
Loading historical data...
Loading historical data...
Loading historical data...

Documentation

Showing up to 5 results
|